Location: Cosy Dell
(34.2789°N, 117.4537°W)
Time: 19:27:46
(UTC+00:00)

Hubble Space Telescope - Pass Details

Date: 14 July 2020
Orbit: 536 x 540 km, 28.5° (Epoch: 13 August)

Event Time Altitude Azimuth Distance (km) Brightness Sun altitude
Rises 04:53:12 0° 262° (W) 2,670 4.8 -19.3°
Reaches altitude 10° 04:55:38 10° 252° (WSW) 1,779 3.7 -19.6°
Enters shadow 04:58:46 30° 204° (SSW) 966 1.8 -20.1°
